DW6610 Weather Reports


Display with metric or nautical units.
time (UTC)temp
F
wind
direction
speed
MPH
gust
MPH
rain 1hr
in
rain 24hr
in
rain mn
in
humidity
%
barometer
mb
20260506051052 69 108 4.0 9.0 0.00 0.84 0.00 90 1007.2
20260506050552 69 134 3.0 9.0 0.00 0.84 0.00 90 1007.5
20260506050108 69 129 3.0 11.0 0.00 0.84 0.00 91 1007.3
20260506045052 69 315 2.0 8.0 0.00 0.84 0.84 91 1007.3
20260506044557 69 81 3.0 8.0 0.00 0.84 0.84 91 1007.3
20260506044052 69 16 1.0 7.0 0.00 0.84 0.84 91 1007.6
20260506043551 69 316 2.0 7.0 0.00 0.84 0.84 91 1008.0
20260506043056 69 77 2.0 7.0 0.00 0.84 0.84 91 1007.8
20260506042551 69 327 2.0 6.0 0.00 0.84 0.84 91 1007.8
20260506042050 69 276 3.0 6.0 0.00 0.84 0.84 90 1007.8
20260506041557 69 74 2.0 6.0 0.00 0.84 0.84 91 1007.9
20260506041052 69 56 2.0 4.0 0.00 0.84 0.84 91 1008.0
20260506040554 68 49 1.0 6.0 0.00 0.84 0.84 91 1008.0
20260506040052 68 64 2.0 6.0 0.00 0.84 0.84 91 1008.2
20260506035553 68 76 2.0 5.0 0.00 0.84 0.84 91 1008.5
20260506035051 68 32 1.0 6.0 0.00 0.84 0.84 91 1008.6
20260506034558 68 352 2.0 6.0 0.00 0.84 0.84 91 1008.3
20260506034048 68 49 1.0 5.0 0.00 0.84 0.84 91 1008.5
20260506033548 68 45 0.0 4.0 0.00 0.84 0.84 91 1008.6
20260506033053 68 93 1.0 6.0 0.00 0.84 0.84 91 1008.4
20260506032548 68 65 2.0 6.0 0.00 0.84 0.84 91 1008.3
20260506032050 68 87 2.0 6.0 0.00 0.84 0.84 91 1008.3
20260506031552 68 20 2.0 6.0 0.00 0.84 0.84 91 1008.3
20260506031052 68 69 2.0 7.0 0.00 0.84 0.84 91 1008.3
20260506030551 68 69 2.0 7.0 0.00 0.84 0.84 91 1008.3
20260506030054 68 109 2.0 8.0 0.00 0.84 0.84 91 1008.2
20260506025551 68 33 2.0 8.0 0.00 0.84 0.84 91 1008.3
20260506025051 68 287 3.0 8.0 0.00 0.84 0.84 92 1008.3
20260506024601 68 23 2.0 7.0 0.00 0.84 0.84 92 1008.6
20260506024051 68 343 2.0 7.0 0.00 0.84 0.84 92 1008.6
20260506023551 68 339 2.0 9.0 0.00 0.84 0.84 92 1008.5
20260506023056 68 330 3.0 9.0 0.00 0.84 0.84 92 1008.5
20260506022548 68 28 3.0 7.0 0.00 0.84 0.84 92 1008.3
20260506022048 68 56 2.0 5.0 0.00 0.84 0.84 93 1008.3
20260506021554 68 77 2.0 5.0 0.00 0.84 0.84 93 1008.3
20260506021048 68 68 1.0 4.0 0.00 0.84 0.84 93 1008.2
20260506020551 68 66 1.0 5.0 0.00 0.84 0.84 93 1008.3
20260506020110 68 67 1.0 5.0 0.00 0.84 0.84 93 1008.3
20260506015552 68 60 1.0 5.0 0.00 0.84 0.84 93 1008.0
20260506015052 68 82 1.0 5.0 0.00 0.84 0.84 93 1008.1
20260506014609 68 321 1.0 8.0 0.00 0.84 0.84 93 1008.1
20260506014051 68 64 2.0 8.0 0.00 0.84 0.84 94 1008.1
20260506013551 68 84 2.0 8.0 0.00 0.84 0.84 94 1008.1
20260506013052 68 48 2.0 7.0 0.00 0.84 0.84 94 1008.0
20260506012551 68 317 3.0 7.0 0.00 0.84 0.84 94 1007.8
20260506012051 68 84 2.0 7.0 0.00 0.84 0.84 94 1007.8
20260506011616 68 321 2.0 7.0 0.00 0.84 0.84 95 1007.9
20260506011051 68 20 2.0 5.0 0.00 0.84 0.84 95 1008.0
20260506010551 68 77 1.0 4.0 0.00 0.84 0.84 95 1007.9
20260506010052 68 58 1.0 7.0 0.00 0.84 0.84 95 1007.8
20260506005552 68 285 2.0 7.0 0.00 0.84 0.84 94 1007.7
20260506005051 68 9 2.0 8.0 0.00 0.84 0.84 94 1007.5
20260506004602 68 25 2.0 8.0 0.00 0.84 0.84 94 1007.7
20260506004051 68 71 2.0 8.0 0.00 0.84 0.84 94 1007.9
20260506003551 68 88 2.0 5.0 0.00 0.84 0.84 94 1007.7
20260506003053 68 32 2.0 4.0 0.00 0.84 0.84 94 1008.0
20260506002553 68 33 2.0 4.0 0.00 0.84 0.84 94 1008.0
20260506002048 68 70 1.0 5.0 0.00 0.84 0.84 94 1008.2
20260506001556 68 48 1.0 5.0 0.00 0.84 0.84 94 1007.8
20260506001051 68 347 2.0 7.0 0.00 0.84 0.84 94 1007.5
20260506000554 68 41 2.0 7.0 0.00 0.84 0.84 94 1007.6
20260506000118 68 300 3.0 7.0 0.00 0.84 0.84 94 1007.4
20260505235554 68 91 2.0 7.0 0.00 0.84 0.84 94 1007.4
20260505235052 68 95 2.0 7.0 0.00 0.84 0.84 94 1007.6
20260505234554 68 66 2.0 7.0 0.00 0.84 0.84 94 1007.9
20260505234052 68 51 1.0 5.0 0.00 0.84 0.84 94 1007.9
20260505233553 68 311 1.0 7.0 0.00 0.84 0.84 94 1007.9
20260505233057 68 26 2.0 7.0 0.00 0.84 0.84 94 1007.9
20260505232551 68 86 1.0 4.0 0.00 0.84 0.84 94 1007.8
20260505232053 68 72 2.0 5.0 0.00 0.84 0.84 94 1007.9
20260505231604 68 60 1.0 7.0 0.00 0.84 0.84 94 1008.0
20260505231052 68 80 1.0 7.0 0.00 0.84 0.84 94 1008.0
20260505230552 68 83 1.0 4.0 0.00 0.84 0.84 94 1008.0
20260505230106 68 44 2.0 4.0 0.00 0.84 0.84 94 1008.0
20260505225548 68 83 1.0 4.0 0.00 0.84 0.84 94 1008.0
20260505225052 68 78 1.0 5.0 0.00 0.84 0.84 94 1008.0
20260505224557 68 304 2.0 5.0 0.00 0.84 0.84 94 1008.0
20260505224051 67 47 1.0 5.0 0.00 0.84 0.84 94 1008.0
20260505223556 67 27 2.0 5.0 0.00 0.84 0.84 94 1007.9
20260505223055 67 39 2.0 6.0 0.00 0.84 0.84 94 1007.9
20260505222551 67 44 2.0 6.0 0.00 0.84 0.84 95 1007.6
20260505222053 67 32 1.0 7.0 0.00 0.84 0.84 95 1007.7
20260505221559 67 31 2.0 7.0 0.00 0.84 0.84 95 1008.0
20260505221052 66 43 1.0 5.0 0.00 0.84 0.84 96 1008.0
20260505220550 66 316 2.0 5.0 0.00 0.84 0.84 96 1008.1
20260505220059 66 19 2.0 7.0 0.00 0.84 0.84 96 1008.3
20260505215548 66 51 1.0 7.0 0.00 0.84 0.84 96 1008.3
20260505215048 66 86 2.0 5.0 0.00 0.84 0.84 96 1008.3
20260505214553 66 30 2.0 4.0 0.00 0.84 0.84 96 1008.5
20260505214051 65 344 1.0 5.0 0.00 0.84 0.84 96 1008.5
20260505213552 65 56 2.0 5.0 0.00 0.84 0.84 96 1008.6
20260505213057 65 47 1.0 5.0 0.00 0.84 0.84 96 1008.6
20260505212554 65 331 2.0 5.0 0.00 0.84 0.84 96 1008.6
20260505212052 65 81 0.0 3.0 0.00 0.84 0.84 96 1008.6
20260505211610 65 107 1.0 5.0 0.00 0.84 0.84 96 1008.7
20260505211052 65 66 2.0 7.0 0.00 0.84 0.84 96 1008.7
20260505210551 65 11 2.0 7.0 0.00 0.84 0.84 96 1008.7
20260505210058 65 110 3.0 7.0 0.00 0.84 0.84 96 1008.8
20260505205551 65 105 3.0 7.0 0.00 0.84 0.84 96 1008.8
20260505205052 65 299 2.0 8.0 0.00 0.84 0.84 96 1008.8
20260505204604 65 39 3.0 8.0 0.00 0.84 0.84 96 1008.9
20260505204048 65 72 3.0 8.0 0.00 0.84 0.84 96 1008.9
20260505203551 65 356 2.0 7.0 0.00 0.84 0.84 96 1008.8
20260505203103 65 89 2.0 7.0 0.00 0.84 0.84 96 1008.9
20260505202548 65 46 3.0 7.0 0.00 0.84 0.84 96 1008.9
20260505202048 65 34 2.0 7.0 0.00 0.84 0.84 96 1009.0
20260505201600 65 26 3.0 7.0 0.00 0.84 0.84 96 1009.0
20260505201052 65 338 2.0 7.0 0.00 0.84 0.84 96 1009.1
20260505200552 65 65 2.0 7.0 0.00 0.84 0.84 95 1009.0
20260505200055 65 84 3.0 7.0 0.00 0.84 0.84 95 1009.1
20260505195551 65 50 2.0 7.0 0.00 0.84 0.84 95 1009.1
20260505195051 65 63 2.0 8.0 0.00 0.84 0.84 96 1009.1
20260505194617 65 34 3.0 8.0 0.00 0.84 0.84 95 1009.0
20260505194051 65 46 2.0 10.0 0.00 0.84 0.84 96 1009.0
20260505193551 65 83 2.0 10.0 0.00 0.84 0.84 96 1009.1
20260505193106 64 65 3.0 10.0 0.00 0.84 0.84 96 1009.1
20260505192558 64 85 2.0 7.0 0.00 0.84 0.84 96 1009.2
20260505192052 64 88 2.0 8.0 0.00 0.84 0.84 96 1009.3
20260505191606 64 44 3.0 8.0 0.00 0.84 0.84 96 1009.4
20260505191055 64 319 2.0 6.0 0.01 0.84 0.84 97 1009.3
20260505190551 63 42 2.0 6.0 0.02 0.84 0.84 97 1009.4
20260505190056 63 16 2.0 7.0 0.02 0.84 0.84 97 1009.5
20260505185552 63 53 2.0 8.0 0.02 0.84 0.84 97 1009.4
20260505185052 63 89 3.0 9.0 0.03 0.84 0.84 97 1009.6
20260505184554 63 57 3.0 9.0 0.03 0.84 0.84 97 1009.5
20260505184052 63 325 2.0 6.0 0.03 0.84 0.84 97 1009.5
20260505183553 62 100 3.0 7.0 0.03 0.84 0.84 97 1009.5
20260505183055 62 312 4.0 7.0 0.03 0.84 0.84 97 1009.5
20260505182554 62 322 2.0 6.0 0.03 0.84 0.84 97 1009.6
20260505182053 62 68 3.0 6.0 0.03 0.84 0.84 97 1009.7
20260505181554 62 130 2.0 7.0 0.03 0.84 0.84 97 1009.8
20260505181053 62 321 2.0 7.0 0.02 0.83 0.83 97 1009.8
20260505180548 62 39 1.0 7.0 0.01 0.82 0.82 97 1009.9
20260505180100 62 75 2.0 7.0 0.01 0.82 0.82 97 1010.1
20260505175548 62 281 3.0 8.0 0.01 0.82 0.82 97 1010.0
20260505175048 62 55 2.0 8.0 0.00 0.81 0.81 97 1010.1
20260505174555 62 29 3.0 8.0 0.01 0.81 0.81 97 1010.1
20260505174048 62 15 2.0 8.0 0.01 0.81 0.81 97 1010.1
20260505173551 61 238 3.0 8.0 0.01 0.81 0.81 97 1010.0
20260505173112 61 15 2.0 9.0 0.02 0.81 0.81 97 1010.1
20260505172551 61 18 3.0 9.0 0.03 0.81 0.81 97 1010.0
20260505172051 61 193 2.0 8.0 0.06 0.81 0.81 97 1010.0
20260505171623 61 53 2.0 10.0 0.08 0.81 0.81 97 1010.2
20260505171050 61 48 2.0 10.0 0.09 0.81 0.81 97 1010.3
20260505170551 60 58 3.0 10.0 0.11 0.81 0.81 97 1010.3
20260505170053 60 352 2.0 6.0 0.14 0.81 0.81 97 1010.4
20260505165548 60 69 3.0 6.0 0.18 0.81 0.81 97 1010.6
20260505165048 60 46 2.0 5.0 0.21 0.81 0.81 97 1010.7
20260505164558 60 295 2.0 8.0 0.22 0.80 0.80 97 1011.1
20260505164051 60 155 2.0 8.0 0.24 0.80 0.80 97 1011.2
20260505163548 60 70 3.0 10.0 0.26 0.80 0.80 97 1011.2
20260505163053 60 51 3.0 10.0 0.27 0.79 0.79 97 1011.0
20260505162554 59 75 5.0 10.0 0.29 0.78 0.78 97 1011.0
20260505162052 59 83 4.0 12.0 0.29 0.75 0.75 97 1011.0
20260505161615 59 99 3.0 12.0 0.31 0.73 0.73 97 1011.2
20260505161053 59 12 4.0 11.0 0.32 0.72 0.72 97 1011.2
20260505160554 59 334 2.0 11.0 0.32 0.70 0.70 97 1011.2
20260505153053 59 77 2.0 8.0 0.30 0.52 0.52 96 1011.8
20260505152548 59 82 1.0 9.0 0.31 0.49 0.49 96 1011.6
20260505152049 59 58 3.0 9.0 0.30 0.46 0.46 96 1011.6
20260505151553 59 20 3.0 8.0 0.27 0.42 0.42 96 1011.2
20260505151049 59 310 2.0 6.0 0.27 0.40 0.40 96 1011.4
20260505150548 59 91 3.0 6.0 0.25 0.37 0.37 96 1011.5
20260505150111 59 30 2.0 6.0 0.23 0.34 0.34 95 1011.3
20260505140548 60 0 0.0 3.0 0.12 0.12 0.12 91 1012.0
20260505124559 62 319 2.0 6.0 0.00 0.00 0.00 79 1011.4
20260505124052 62 58 2.0 10.0 0.00 0.00 0.00 79 1011.3
20260505123555 62 24 3.0 10.0 0.00 0.00 0.00 79 1011.3
20260505123059 62 353 3.0 8.0 0.00 0.00 0.00 79 1011.2
20260505122552 62 329 2.0 8.0 0.00 0.00 0.00 79 1011.2
20260505122053 62 61 2.0 6.0 0.00 0.00 0.00 79 1011.1
20260505121620 62 38 3.0 7.0 0.00 0.00 0.00 79 1011.1
20260505121052 62 65 2.0 7.0 0.00 0.00 0.00 79 1011.1
20260505120551 62 75 2.0 7.0 0.00 0.00 0.00 79 1011.0
20260505120053 62 77 2.0 6.0 0.00 0.00 0.00 79 1010.9
20260505115551 62 23 2.0 6.0 0.00 0.00 0.00 78 1010.9
20260505115048 62 354 1.0 4.0 0.00 0.00 0.00 78 1010.9
20260505114557 62 13 2.0 5.0 0.00 0.00 0.00 78 1010.8
20260505114049 62 259 2.0 5.0 0.00 0.00 0.00 78 1010.8
20260505113550 62 60 2.0 5.0 0.00 0.00 0.00 78 1010.8
20260505113057 62 84 2.0 4.0 0.00 0.00 0.00 78 1010.5
20260505112549 62 20 1.0 5.0 0.00 0.00 0.00 77 1010.3
20260505112048 62 345 1.0 5.0 0.00 0.00 0.00 77 1010.2
20260505111556 62 68 2.0 5.0 0.00 0.00 0.00 77 1010.0
20260505111055 62 49 2.0 5.0 0.00 0.00 0.00 77 1009.9
20260505110554 62 48 2.0 5.0 0.00 0.00 0.00 77 1010.1
20260505102048 62 31 2.0 5.0 0.00 0.00 0.00 75 1009.8
20260505101557 63 53 1.0 3.0 0.00 0.00 0.00 75 1009.6
20260505101051 63 32 0.0 4.0 0.00 0.00 0.00 75 1009.8
20260505100621 63 0 1.0 6.0 0.00 0.00 0.00 74 1009.8
20260505100128 63 63 1.0 6.0 0.00 0.00 0.00 74 1009.7
20260505095551 63 75 2.0 7.0 0.00 0.00 0.00 74 1009.5
20260505095050 63 107 2.0 8.0 0.00 0.00 0.00 74 1009.4
20260505094551 63 307 1.0 8.0 0.00 0.00 0.00 74 1009.4
20260505094052 63 51 1.0 6.0 0.00 0.00 0.00 73 1009.3
20260505093552 63 22 1.0 7.0 0.00 0.00 0.00 73 1009.5
20260505093053 63 8 2.0 7.0 0.00 0.00 0.00 73 1009.4
20260505092554 63 61 3.0 7.0 0.00 0.00 0.00 73 1009.4
20260505092053 63 67 2.0 7.0 0.00 0.00 0.00 73 1009.2
20260505091616 63 51 3.0 7.0 0.00 0.00 0.00 72 1009.1
20260505091052 63 38 2.0 10.0 0.00 0.00 0.00 72 1009.0
20260505090551 63 84 4.0 10.0 0.00 0.00 0.00 72 1009.0
20260505090100 63 89 2.0 10.0 0.00 0.00 0.00 72 1009.1
20260505085551 63 33 3.0 10.0 0.00 0.00 0.00 72 1009.2
20260505085049 63 41 3.0 10.0 0.00 0.00 0.00 72 1009.1
20260505084550 63 89 2.0 8.0 0.00 0.00 0.00 72 1009.1
20260505084050 63 34 3.0 8.0 0.00 0.00 0.00 72 1009.2
20260505083551 63 24 2.0 7.0 0.00 0.00 0.00 72 1009.3
20260505083054 63 83 3.0 7.0 0.00 0.00 0.00 72 1009.3
20260505082551 63 39 2.0 7.0 0.00 0.00 0.00 72 1009.3
20260505082050 63 288 3.0 6.0 0.00 0.00 0.00 72 1009.4
20260505081557 63 68 2.0 6.0 0.00 0.00 0.00 72 1009.5
20260505081052 63 17 2.0 6.0 0.00 0.00 0.00 72 1009.4
20260505080550 62 85 1.0 5.0 0.00 0.00 0.00 73 1009.5
20260505080054 62 44 2.0 5.0 0.00 0.00 0.00 73 1009.6
20260505075548 62 62 2.0 5.0 0.00 0.00 0.00 73 1009.5
20260505075053 62 34 2.0 5.0 0.00 0.00 0.00 73 1009.6
20260505074553 62 306 2.0 5.0 0.00 0.00 0.00 72 1009.6
20260505074054 62 94 2.0 5.0 0.00 0.00 0.00 72 1009.5
20260505073547 62 4 1.0 7.0 0.00 0.00 0.00 72 1009.7
20260505073100 62 56 1.0 7.0 0.00 0.00 0.00 72 1009.8
20260505072551 62 63 1.0 5.0 0.00 0.00 0.00 72 1010.0
20260505072054 63 26 2.0 5.0 0.00 0.00 0.00 72 1010.0
20260505071552 63 55 1.0 4.0 0.00 0.00 0.00 72 1010.3
20260505071052 63 78 1.0 4.0 0.00 0.00 0.00 72 1010.5
20260505070549 63 34 1.0 5.0 0.00 0.00 0.00 71 1010.6
20260505070057 63 21 1.0 5.0 0.00 0.00 0.00 71 1010.7
20260505065552 63 49 1.0 4.0 0.00 0.00 0.00 71 1010.7
20260505065052 63 15 1.0 4.0 0.00 0.00 0.00 71 1011.0
20260505064602 63 77 0.0 3.0 0.00 0.00 0.00 70 1011.0
20260505064048 63 48 1.0 3.0 0.00 0.00 0.00 70 1011.1
20260505063549 64 63 1.0 4.0 0.00 0.00 0.00 69 1011.1
20260505063101 64 35 1.0 6.0 0.00 0.00 0.00 69 1011.1
20260505062551 64 54 2.0 6.0 0.00 0.00 0.00 68 1011.2
20260505062051 64 12 1.0 4.0 0.00 0.00 0.00 68 1011.2
20260505061552 65 62 1.0 3.0 0.00 0.00 0.00 67 1011.1
20260505061051 65 337 1.0 4.0 0.00 0.00 0.00 67 1011.3
20260505060554 65 84 1.0 4.0 0.00 0.00 0.00 67 1011.3
20260505060059 65 65 2.0 4.0 0.00 0.00 0.00 66 1011.3
20260505055549 65 42 2.0 4.0 0.00 0.00 0.00 66 1011.2